{"data":{"norad_id":57763,"epoch":"2026-05-25T03:19:21.838080Z","epoch_age_seconds":59487,"freshness":"FRESH","line1":"1 57763U 23133G   26145.13844720  .00000146  00000+0  11875-3 0  9992","line2":"2 57763  80.9968  29.2729 0006857  78.3152 281.8773 13.85340562137827","mean_motion":13.85340562,"eccentricity":0.0006857,"inclination_deg":80.9968,"raan_deg":29.2729,"arg_perigee_deg":78.3152,"mean_anomaly_deg":281.8773,"bstar":0.00011875,"rev_number":13782,"period_min":103.94555963344,"perigee_km":939.98384184772,"apogee_km":950.0267992261,"semimajor_km":7323.1423205369,"source":"CELESTRAK","updated_at":"2026-05-25T13:38:00.236737Z"}}